Voltar ao catálogo

FREGAT DEB

AtivoUNKNOWN
NORAD 46243·DEBRIS·🇷🇺 Russia

Lançado Jul 18, 2011 de Baikonur Cosmodrome

Loading…

Próximas Passagens (próximas 24 horas)

TLE

AtualizadoSource: Space-Track

Época: Sep 13, 2026, 06:06 UTC

1 46243U 11037KD  26256.25422289  .00001067  00000-0  35222-1 0  9995
2 46243  51.8882 329.4052 1320817  62.7843 310.1275 10.03993462 86943

Acompanhe FREGAT DEB em tempo real com AllMySat

Download on the App Store